| time (UTC) | temp F | wind direction | speed MPH | gust MPH | rain 1hr in | rain 24hr in | rain mn in | humidity % | barometer mb |
| 20260504033310 | 42 | 315 | 3.0 | 5.0 | 0.00 | 0.00 | 0.00 | 71 | 991.0 |
| 20260504031309 | 42 | 315 | 3.0 | 7.0 | 0.00 | 0.00 | 0.00 | 72 | 991.0 |
| 20260504025310 | 42 | 315 | 5.0 | 7.0 | 0.00 | 0.00 | 0.00 | 72 | 991.0 |
| 20260504023310 | 42 | 315 | 4.0 | 10.0 | 0.00 | 0.00 | 0.00 | 72 | 991.0 |
| 20260504021310 | 42 | 315 | 4.0 | 6.0 | 0.00 | 0.00 | 0.00 | 71 | 990.0 |
| 20260504015309 | 42 | 337 | 4.0 | 8.0 | 0.00 | 0.00 | 0.00 | 70 | 990.0 |
| 20260504013309 | 42 | 337 | 4.0 | 6.0 | 0.00 | 0.00 | 0.00 | 69 | 990.0 |
| 20260504011310 | 42 | 337 | 5.0 | 7.0 | 0.00 | 0.00 | 0.00 | 70 | 990.0 |
| 20260504005309 | 42 | 337 | 3.0 | 5.0 | 0.00 | 0.00 | 0.00 | 69 | 991.0 |
| 20260504003310 | 42 | 337 | 4.0 | 7.0 | 0.00 | 0.00 | 0.00 | 69 | 990.0 |
| 20260504001309 | 42 | 337 | 3.0 | 8.0 | 0.00 | 0.00 | 0.00 | 70 | 991.0 |
| 20260503235310 | 42 | 337 | 4.0 | 6.0 | 0.00 | 0.00 | 0.00 | 68 | 991.0 |
| 20260503233313 | 42 | 337 | 4.0 | 6.0 | 0.00 | 0.00 | 0.00 | 67 | 991.0 |
| 20260503231310 | 42 | 337 | 3.0 | 5.0 | 0.00 | 0.00 | 0.00 | 66 | 991.0 |
| 20260503225310 | 42 | 337 | 2.0 | 4.0 | 0.00 | 0.00 | 0.00 | 65 | 991.0 |
| 20260503223310 | 42 | 337 | 2.0 | 3.0 | 0.00 | 0.00 | 0.00 | 65 | 991.0 |
| 20260503221310 | 42 | 337 | 2.0 | 3.0 | 0.00 | 0.00 | 0.00 | 64 | 991.0 |
| 20260503215310 | 42 | 337 | 1.0 | 2.0 | 0.00 | 0.00 | 0.00 | 63 | 991.0 |
| 20260503213309 | 42 | 337 | 2.0 | 2.0 | 0.00 | 0.00 | 0.00 | 64 | 991.0 |
| 20260503205310 | 42 | 337 | 2.0 | 3.0 | 0.00 | 0.00 | 0.00 | 65 | 991.0 |
| 20260503203310 | 42 | 337 | 1.0 | 2.0 | 0.00 | 0.00 | 0.00 | 65 | 992.0 |
| 20260503201310 | 44 | 337 | 1.0 | 3.0 | 0.00 | 0.00 | 0.00 | 66 | 992.0 |
| 20260503195310 | 42 | 337 | 1.0 | 2.0 | 0.00 | 0.00 | 0.00 | 67 | 992.0 |
| 20260503193310 | 44 | 337 | 1.0 | 2.0 | 0.00 | 0.00 | 0.00 | 67 | 992.0 |
| 20260503191310 | 42 | 337 | 0.0 | 1.0 | 0.00 | 0.00 | 0.00 | 68 | 993.0 |
| 20260503185310 | 42 | 45 | 0.0 | 1.0 | 0.00 | 0.00 | 0.00 | 69 | 993.0 |
| 20260503183309 | 44 | 45 | 0.0 | 0.0 | 0.00 | 0.00 | 0.00 | 66 | 993.0 |
| 20260503181310 | 46 | 45 | 0.0 | 0.0 | 0.00 | 0.00 | 0.00 | 65 | 992.0 |
| 20260503175310 | 46 | 45 | 0.0 | 0.0 | 0.00 | 0.00 | 0.00 | 63 | 993.0 |
| 20260503173310 | 46 | 45 | 0.0 | 0.0 | 0.00 | 0.00 | 0.00 | 62 | 992.0 |
| 20260503171309 | 48 | 45 | 0.0 | 0.0 | 0.00 | 0.00 | 0.00 | 61 | 993.0 |
| 20260503131310 | 53 | 112 | 2.0 | 3.0 | 0.00 | 0.00 | 0.00 | 57 | 993.0 |
| 20260503081311 | 50 | 45 | 2.0 | 4.0 | 0.00 | 0.00 | 0.00 | 67 | 994.0 |
| 20260503071310 | 50 | 22 | 1.0 | 3.0 | 0.00 | 0.00 | 0.00 | 76 | 994.0 |
| 20260503053310 | 41 | 337 | 2.0 | 6.0 | 0.00 | 0.00 | 0.00 | 86 | 995.0 |
| 20260503051310 | 41 | 0 | 2.0 | 4.0 | 0.00 | 0.00 | 0.00 | 86 | 995.0 |
| 20260503045309 | 41 | 0 | 1.0 | 2.0 | 0.00 | 0.00 | 0.00 | 87 | 995.0 |
| 20260503043311 | 39 | 337 | 1.0 | 4.0 | 0.00 | 0.00 | 0.00 | 87 | 995.0 |
| 20260503041310 | 39 | 337 | 2.0 | 3.0 | 0.00 | 0.00 | 0.00 | 88 | 995.0 |
| 20260503035311 | 39 | 337 | 2.0 | 4.0 | 0.00 | 0.00 | 0.00 | 87 | 994.0 |